Airfield :
LOGIN :

Register | Disclaimer

   EN    FR    IT 

 










Legend :    VFR   Marginal VFR   IFR   Intensive IFR   Very Intensive IFR
Visi :
Ceiling :
>= 8 km
>= 3000ft
5 to 8 km
1000 to 3000 ft
1500m to 5 km
500 to 1000 ft
800 to 1500m
200 to 500 ft
< 800m
< 200 ft
Symbols :   Thunderstorms  Fog  Heavy snow  Heavy precipitations  Wind > 20 kt
SIGMETs :     Misc.  Thunderstorms  Icing  Turbulence  Mountain Waves  Volcanic Ashes







- Airport Elevation : 13 ft
- IATA code : CAG


LIEE - Cagliari Elmas

CURRENT METAR :
  • 161520Z 16008KT 9999 FEW030 23/18 Q1014

EXPIRED METARs :
  • 161450Z 16007KT 9999 FEW030 23/18 Q1014
  • 161420Z 16006KT 9999 FEW030 24/18 Q1014
  • 161350Z 17005KT 9999 FEW030 24/18 Q1014
  • 161320Z 17004KT 9999 FEW030 24/18 Q1014
  • 161250Z 17006KT 9999 FEW030 24/19 Q1014

TAF TAF LIEE
Valid from the 16 at 12:00 until the 17 at 12:00 UTC


161100Z 1612/1712 18010KT 9999 SCT030
TEMPO 1612/1618 4000 TSRA
TEMPO 1700/1712 4000 TSRA
No reported NOTAMs for that airfield.



MET'MAP, your aeronautical weather chart ! - Copyright ORBIFLY December 2007 - Disclaimer

ORBIFLY MET'MAP TEAM :

Programming & Development : Alexandra Zaïnal
Concept & Development : Baudouin d'Aumeries
Co-Development & Prog : Marc-Olivier Méhu
Technical & hardware support : Manuel Goepfert

Contact : metmap@orbifly.com




SOURCES & CREDITS :

   NOAA